Location: Grossmotten
(48.5500°N, 15.3833°E)
Time: 19:32:07
(UTC+00:00)

CZ-4B DEB - Pass Details

Date: 15 November 2019
Orbit: 840 x 862 km, 99.1° (Epoch: 11 December)

Event Time Altitude Azimuth Distance (km) Brightness Sun altitude
Rises 04:43:40 0° 13° (NNE) 3,409 7.4 -13.6°
Reaches altitude 10° 04:46:03 10° 11° (N) 2,471 6.6 -13.2°
Maximum altitude 04:51:28 68° 290° (WNW) 910 4.1 -12.3°
Drops below altitude 10° 04:56:53 10° 208° (SSW) 2,463 6.5 -11.5°
Sets 04:59:15 0° 206° (SSW) 3,397 7.2 -11.1°
